"Pseudo-MPEC" for P21vs1n

Created 2022 Aug 15 16:22:22 UT using Find_Orb

Click here for an explanation of pseudo-MPECs

 
 Astrometry: 
     P21vs1n* C2022 07 26njyH6)Astrometryau:.byuo'qredacted;TiV871DR+nm`;QTcgF52
     P21vs1n  C2022 07 26]%+XsnN5G#+Nt9rQ+cbO;GD..D#_xg5lfHeZP!'T`/Ny'Y*kuY,CF52
     P21vs1n  C2022 07 26Wo+VrjT_JD+6lqpvLQP2aYeBlI3h\te:Cpp;:$UH`clickUn1%k7F52
     P21vs1n  C2022 07 261u#LThn!k\iNV.ByXlnrpI6sdEAO%fg6bjbp3VKXl:`H(!ZNhereF52
     P21vs1n  C2022 07 26J,Eswr7BmAGZ.7vRyF?0forrxf8%iA#oP0n$-@o)46+HxBx+BxJRF52
     P21vs1n  C2022 07 26p.7;explanation3Z6n]_xG.TNL8bC;?Fa;Jme'Vvi\f7tK6AYlPF52

Station data:
(F52) Pan-STARRS 2, Haleakala  (N20.707382 W156.255910)  US/Hawaii.
   Observers J. Bulger, T. Dukes, T. Lowe, A. Schultz, M. Willman. Measurers
   K. Chambers, S. Chastel, T. de Boer, L. Denneau, J. Fairlamb, H.
   Flewelling, M. Huber, C.-C. Lin, E. Magnier, Y. Ramanjooloo, R. Wainscoat,
   R. Weryk. 1.8-m Ritchey-Chrétien + CCD.

Orbital elements:  P21vs1n
   Perihelion 2023 Aug 20.86430 +/- 283 TT = 20:44:35 (JD 2460177.36430)
Epoch 2022 Jul 26.0 TT = JDT 2459786.5   Earth MOID: 0.3384   AutoNEOCP
M 200.20726313 +/- 120              (J2000 ecliptic)
n   0.40881896 +/- 0.231            Peri.  174.75727 +/- 70
a   1.79796829 +/- 0.676            Node   298.49837 +/- 24
e   0.2650675 +/- 0.252             Incl.   20.72608 +/- 37
P   2.41/880.57d           H 20.0   G  0.15   U 11.8  SR
q 1.32138523 +/- 0.863    Q 2.27455134 +/- 33.1
From 6 observations 2022 July 26 (3.1 hr); mean residual 0".08
Residuals in arcseconds: 
220726 F52  .13-  .03-    220726 F52  .11+  .11-    220726 F52  .11-  .01-    
220726 F52  .03-  .13+    220726 F52  .09+  .01-    220726 F52  .07+  .02+    

Ephemerides (geocentric):
Date (UTC) HH   RA             Dec           delta  r     elong  mag " sig PA
---- --------  ------------   ------------  ------ ------ -----  --- --------
2022 08 15 16  20 01 43.581   -12 46 44.11  1.2730 2.2374 156.2 22.9  18d  11
2022 08 15 17  20 01 40.311   -12 46 34.50  1.2732 2.2374 156.2 22.9  18d  11
2022 08 15 18  20 01 37.043   -12 46 24.89  1.2734 2.2373 156.1 22.9  18d  11
2022 08 15 19  20 01 33.779   -12 46 15.29  1.2736 2.2373 156.1 22.9  18d  11
2022 08 15 20  20 01 30.517   -12 46 05.69  1.2737 2.2372 156.0 22.9  18d  11
2022 08 15 21  20 01 27.259   -12 45 56.09  1.2739 2.2372 156.0 22.9  18d  11
2022 08 15 22  20 01 24.003   -12 45 46.50  1.2741 2.2371 155.9 22.9  18d  11
2022 08 15 23  20 01 20.751   -12 45 36.91  1.2743 2.2371 155.9 22.9  18d  11
2022 08 16 00  20 01 17.501   -12 45 27.32  1.2745 2.2370 155.8 22.9  19d  11
2022 08 16 01  20 01 14.255   -12 45 17.74  1.2746 2.2370 155.8 22.9  19d  11
2022 08 16 02  20 01 11.011   -12 45 08.16  1.2748 2.2370 155.7 22.9  19d  11
2022 08 16 03  20 01 07.770   -12 44 58.58  1.2750 2.2369 155.7 22.9  19d  11
2022 08 16 04  20 01 04.533   -12 44 49.01  1.2752 2.2369 155.6 22.9  19d  11
2022 08 16 05  20 01 01.298   -12 44 39.44  1.2753 2.2368 155.5 22.9  19d  11
2022 08 16 06  20 00 58.067   -12 44 29.87  1.2755 2.2368 155.5 22.9  19d  11
2022 08 16 07  20 00 54.838   -12 44 20.31  1.2757 2.2367 155.4 22.9  19d  11
2022 08 16 08  20 00 51.613   -12 44 10.74  1.2759 2.2367 155.4 22.9  19d  11
2022 08 16 09  20 00 48.390   -12 44 01.19  1.2761 2.2366 155.3 22.9  19d  11
2022 08 16 10  20 00 45.171   -12 43 51.63  1.2763 2.2366 155.3 22.9  19d  11
2022 08 16 11  20 00 41.954   -12 43 42.08  1.2764 2.2366 155.2 22.9  19d  11
2022 08 16 12  20 00 38.741   -12 43 32.53  1.2766 2.2365 155.2 22.9  19d  11
2022 08 16 13  20 00 35.531   -12 43 22.99  1.2768 2.2365 155.1 23.0  19d  11
2022 08 16 14  20 00 32.324   -12 43 13.44  1.2770 2.2364 155.1 23.0  19d  11
2022 08 16 15  20 00 29.120   -12 43 03.91  1.2772 2.2364 155.0 23.0  19d  11
2022 08 16 16  20 00 25.918   -12 42 54.37  1.2774 2.2363 155.0 23.0  19d  11
2022 08 16 17  20 00 22.720   -12 42 44.84  1.2775 2.2363 154.9 23.0  19d  11
2022 08 16 18  20 00 19.525   -12 42 35.31  1.2777 2.2362 154.9 23.0  19d  11
2022 08 16 19  20 00 16.334   -12 42 25.78  1.2779 2.2362 154.8 23.0  19d  11
2022 08 16 20  20 00 13.145   -12 42 16.26  1.2781 2.2362 154.8 23.0  19d  11
2022 08 16 21  20 00 09.959   -12 42 06.74  1.2783 2.2361 154.7 23.0  19d  11
2022 08 16 22  20 00 06.777   -12 41 57.22  1.2785 2.2361 154.7 23.0  19d  11
2022 08 16 23  20 00 03.597   -12 41 47.71  1.2787 2.2360 154.6 23.0  19d  11
2022 08 17 00  20 00 00.421   -12 41 38.20  1.2788 2.2360 154.6 23.0  19d  11
2022 08 17 01  19 59 57.247   -12 41 28.70  1.2790 2.2359 154.5 23.0  20d  11
2022 08 17 02  19 59 54.077   -12 41 19.19  1.2792 2.2359 154.5 23.0  20d  11
2022 08 17 03  19 59 50.910   -12 41 09.69  1.2794 2.2358 154.4 23.0  20d  11
2022 08 17 04  19 59 47.746   -12 41 00.20  1.2796 2.2358 154.4 23.0  20d  11
2022 08 17 05  19 59 44.586   -12 40 50.70  1.2798 2.2357 154.3 23.0  20d  11
2022 08 17 06  19 59 41.428   -12 40 41.21  1.2800 2.2357 154.3 23.0  20d  11
2022 08 17 07  19 59 38.273   -12 40 31.73  1.2802 2.2357 154.2 23.0  20d  11
2022 08 17 08  19 59 35.122   -12 40 22.24  1.2804 2.2356 154.2 23.0  20d  11
2022 08 17 09  19 59 31.974   -12 40 12.76  1.2805 2.2356 154.1 23.0  20d  11
2022 08 17 10  19 59 28.829   -12 40 03.29  1.2807 2.2355 154.1 23.0  20d  11
2022 08 17 11  19 59 25.687   -12 39 53.81  1.2809 2.2355 154.0 23.0  20d  11
2022 08 17 12  19 59 22.548   -12 39 44.34  1.2811 2.2354 154.0 23.0  20d  11
2022 08 17 13  19 59 19.413   -12 39 34.88  1.2813 2.2354 153.9 23.0  20d  11
2022 08 17 14  19 59 16.280   -12 39 25.41  1.2815 2.2353 153.9 23.0  20d  11
2022 08 17 15  19 59 13.151   -12 39 15.95  1.2817 2.2353 153.8 23.0  20d  11